{"data":{"norad_id":59027,"intl_designator":"2024-038E","name":"STARLINK-30863","alt_names":[],"object_type":"PAYLOAD","status":"ACTIVE","operator":null,"country":"US","launch_date":"2024-02-25","launch_site_code":"AFETR","launch_vehicle":null,"mission":null,"orbit_class":"UNKNOWN","rcs_meters":null,"size_class":null,"mass_kg":null,"dimensions":null,"purposes":["comms"],"wikipedia_slug":null,"has_3d_model":false,"image_url":null,"decayed_at":null,"tle_current":{"epoch":"2026-05-25T04:43:30.476064Z","epoch_age_seconds":51423,"freshness":"FRESH","line1":"1 59027U 24038E   26145.19688051  .00000810  00000+0  38975-4 0  9990","line2":"2 59027  43.0027 315.3930 0001702 269.5371  90.5285 15.27576455126340","mean_motion":15.27576455,"eccentricity":0.0001702,"inclination_deg":43.0027,"raan_deg":315.393,"arg_perigee_deg":269.5371,"mean_anomaly_deg":90.5285,"bstar":3.8975e-5,"rev_number":12634,"period_min":94.266967475615,"perigee_km":481.89193538526,"apogee_km":484.22748674571,"semimajor_km":6861.1967110655,"source":"CELESTRAK","updated_at":"2026-05-25T13:38:18.822709Z"}}}